Time,TemperatureF,DewpointF,PressureIn,WindDirection,WindDirectionDegrees,WindSpeedMPH,WindSpeedGustMPH,Humidity,HourlyPrecipIn,Conditions,Clouds,dailyrainin,SoftwareType,DateUTC
2013-08-31 00:02:00,70.3,69.4,29.81,WNW,298,0.0,-999.0,97,0.00,,,0.00,Wunderground v.1.15,2013-08-31 04:02:00,
2013-08-31 00:04:00,70.3,69.4,29.81,WNW,298,0.0,-999.0,97,0.00,,,0.00,Wunderground v.1.15,2013-08-31 04:04:00,
2013-08-31 00:10:00,70.5,69.9,29.81,WNW,298,0.0,-999.0,98,0.00,,,0.00,Wunderground v.1.15,2013-08-31 04:10:00,
2013-08-31 00:16:00,70.5,69.6,29.80,WNW,298,0.0,-999.0,97,0.00,,,0.00,Wunderground v.1.15,2013-08-31 04:16:00,
2013-08-31 00:22:00,70.6,69.7,29.80,SW,217,0.0,-999.0,97,0.00,,,0.00,Wunderground v.1.15,2013-08-31 04:22:00,
2013-08-31 00:28:00,70.6,69.7,29.80,SW,217,0.0,-999.0,97,0.00,,,0.00,Wunderground v.1.15,2013-08-31 04:28:00,
2013-08-31 00:34:00,70.6,69.7,29.80,SW,232,0.0,-999.0,97,0.00,,,0.00,Wunderground v.1.15,2013-08-31 04:34:00,
2013-08-31 00:40:00,70.6,69.7,29.80,SW,229,0.0,-999.0,97,0.00,,,0.00,Wunderground v.1.15,2013-08-31 04:40:00,
2013-08-31 00:42:00,70.6,69.7,29.80,SW,229,0.0,-999.0,97,0.00,,,0.00,Wunderground v.1.15,2013-08-31 04:42:00,
2013-08-31 00:48:00,70.8,69.9,29.80,SW,233,0.0,-999.0,97,0.00,,,0.00,Wunderground v.1.15,2013-08-31 04:48:00,
2013-08-31 00:54:00,70.8,69.9,29.80,ESE,118,0.0,-999.0,97,0.00,,,0.00,Wunderground v.1.15,2013-08-31 04:54:00,
2013-08-31 00:56:00,70.8,69.9,29.80,ESE,118,0.0,-999.0,97,0.00,,,0.00,Wunderground v.1.15,2013-08-31 04:56:00,
2013-08-31 01:02:00,70.7,69.8,29.80,WSW,248,0.0,-999.0,97,0.00,,,0.00,Wunderground v.1.15,2013-08-31 05:02:00,
2013-08-31 01:08:00,70.6,69.7,29.80,WSW,242,0.0,-999.0,97,0.00,,,0.00,Wunderground v.1.15,2013-08-31 05:08:00,
2013-08-31 01:14:00,70.5,69.6,29.79,WSW,242,0.0,-999.0,97,0.00,,,0.00,Wunderground v.1.15,2013-08-31 05:14:00,
2013-08-31 01:20:00,70.5,69.6,29.80,West,276,0.0,-999.0,97,0.00,,,0.00,Wunderground v.1.15,2013-08-31 05:20:00,
2013-08-31 01:26:00,70.5,69.6,29.80,NE,34,0.0,-999.0,97,0.00,,,0.00,Wunderground v.1.15,2013-08-31 05:26:00,
2013-08-31 01:32:00,70.3,69.4,29.79,SSE,156,0.0,-999.0,97,0.00,,,0.00,Wunderground v.1.15,2013-08-31 05:32:00,
2013-08-31 01:38:00,70.0,69.1,29.79,SSE,157,0.0,-999.0,97,0.00,,,0.00,Wunderground v.1.15,2013-08-31 05:38:00,
2013-08-31 01:44:00,70.0,69.4,29.80,SW,216,0.0,-999.0,98,0.00,,,0.00,Wunderground v.1.15,2013-08-31 05:44:00,
2013-08-31 01:50:00,69.9,69.3,29.80,SW,216,0.0,-999.0,98,0.00,,,0.00,Wunderground v.1.15,2013-08-31 05:50:00,
2013-08-31 01:56:00,69.8,69.2,29.79,SW,231,0.0,-999.0,98,0.00,,,0.00,Wunderground v.1.15,2013-08-31 05:56:00,
2013-08-31 02:02:00,69.7,69.1,29.79,SW,231,0.0,-999.0,98,0.00,,,0.00,Wunderground v.1.15,2013-08-31 06:02:00,
2013-08-31 02:08:00,69.6,69.0,29.79,SW,231,0.0,-999.0,98,0.00,,,0.00,Wunderground v.1.15,2013-08-31 06:08:00,
2013-08-31 02:14:00,69.5,68.9,29.79,SW,231,0.0,-999.0,98,0.00,,,0.00,Wunderground v.1.15,2013-08-31 06:14:00,
2013-08-31 02:20:00,69.4,68.8,29.79,SW,231,0.0,-999.0,98,0.00,,,0.00,Wunderground v.1.15,2013-08-31 06:20:00,
2013-08-31 02:26:00,69.4,68.8,29.78,SW,231,0.0,-999.0,98,0.00,,,0.00,Wunderground v.1.15,2013-08-31 06:26:00,
2013-08-31 02:32:00,69.3,68.7,29.78,SW,231,0.0,-999.0,98,0.00,,,0.00,Wunderground v.1.15,2013-08-31 06:32:00,
2013-08-31 02:38:00,69.2,68.6,29.78,SW,230,0.0,-999.0,98,0.00,,,0.00,Wunderground v.1.15,2013-08-31 06:38:00,
2013-08-31 02:44:00,69.2,68.9,29.78,SW,231,0.0,-999.0,99,0.00,,,0.00,Wunderground v.1.15,2013-08-31 06:44:00,
2013-08-31 02:50:00,69.3,69.0,29.78,SW,231,0.0,-999.0,99,0.00,,,0.00,Wunderground v.1.15,2013-08-31 06:50:00,
2013-08-31 02:56:00,69.4,69.1,29.78,SW,231,0.0,-999.0,99,0.00,,,0.00,Wunderground v.1.15,2013-08-31 06:56:00,
2013-08-31 03:02:00,69.3,69.0,29.78,SW,231,0.0,-999.0,99,0.00,,,0.00,Wunderground v.1.15,2013-08-31 07:02:00,
2013-08-31 03:08:00,69.2,68.9,29.78,SW,231,0.0,-999.0,99,0.00,,,0.00,Wunderground v.1.15,2013-08-31 07:08:00,
2013-08-31 03:14:00,69.3,69.0,29.78,SW,221,0.0,-999.0,99,0.00,,,0.00,Wunderground v.1.15,2013-08-31 07:14:00,
2013-08-31 03:20:00,69.2,68.9,29.78,SW,221,0.0,-999.0,99,0.00,,,0.00,Wunderground v.1.15,2013-08-31 07:20:00,
2013-08-31 03:26:00,69.3,69.0,29.78,SW,221,0.0,-999.0,99,0.00,,,0.00,Wunderground v.1.15,2013-08-31 07:26:00,
2013-08-31 03:32:00,69.4,69.1,29.78,SW,226,0.0,-999.0,99,0.00,,,0.00,Wunderground v.1.15,2013-08-31 07:32:00,
2013-08-31 03:38:00,69.5,69.2,29.78,SW,226,0.0,-999.0,99,0.00,,,0.00,Wunderground v.1.15,2013-08-31 07:38:00,
2013-08-31 03:44:00,69.4,69.1,29.78,SW,226,0.0,-999.0,99,0.00,,,0.00,Wunderground v.1.15,2013-08-31 07:44:00,
2013-08-31 03:50:00,69.3,69.0,29.78,SW,226,0.0,-999.0,99,0.00,,,0.00,Wunderground v.1.15,2013-08-31 07:50:00,
2013-08-31 03:56:00,69.3,69.0,29.79,SW,226,0.0,-999.0,99,0.00,,,0.00,Wunderground v.1.15,2013-08-31 07:56:00,
2013-08-31 04:02:00,69.2,68.9,29.78,SW,226,0.0,-999.0,99,0.00,,,0.00,Wunderground v.1.15,2013-08-31 08:02:00,
2013-08-31 04:08:00,69.2,68.9,29.78,SW,226,0.0,-999.0,99,0.00,,,0.00,Wunderground v.1.15,2013-08-31 08:08:00,
2013-08-31 04:14:00,69.2,68.9,29.78,SW,226,0.0,-999.0,99,0.00,,,0.00,Wunderground v.1.15,2013-08-31 08:14:00,
2013-08-31 04:20:00,69.1,68.8,29.78,SW,226,0.0,-999.0,99,0.00,,,0.00,Wunderground v.1.15,2013-08-31 08:20:00,
2013-08-31 04:26:00,69.3,69.0,29.78,SW,226,0.0,-999.0,99,0.00,,,0.00,Wunderground v.1.15,2013-08-31 08:26:00,
2013-08-31 04:32:00,69.4,69.1,29.78,SW,226,0.0,-999.0,99,0.00,,,0.00,Wunderground v.1.15,2013-08-31 08:32:00,
2013-08-31 04:38:00,69.4,69.1,29.78,SW,225,0.0,-999.0,99,0.00,,,0.00,Wunderground v.1.15,2013-08-31 08:38:00,
2013-08-31 04:44:00,69.6,69.3,29.78,SW,227,1.0,-999.0,99,0.00,,,0.00,Wunderground v.1.15,2013-08-31 08:44:00,
2013-08-31 04:50:00,69.6,69.3,29.78,WSW,242,1.0,-999.0,99,0.00,,,0.00,Wunderground v.1.15,2013-08-31 08:50:00,
2013-08-31 04:56:00,69.5,69.2,29.78,WSW,242,0.0,-999.0,99,0.00,,,0.00,Wunderground v.1.15,2013-08-31 08:56:00,
2013-08-31 05:02:00,69.5,69.2,29.78,WSW,243,0.0,-999.0,99,0.00,,,0.00,Wunderground v.1.15,2013-08-31 09:02:00,
2013-08-31 05:08:00,69.4,69.1,29.78,SW,220,0.0,-999.0,99,0.00,,,0.00,Wunderground v.1.15,2013-08-31 09:08:00,
2013-08-31 05:14:00,69.3,69.0,29.78,SW,219,0.0,-999.0,99,0.00,,,0.00,Wunderground v.1.15,2013-08-31 09:14:00,
2013-08-31 05:20:00,69.2,68.9,29.78,SW,219,0.0,-999.0,99,0.00,,,0.00,Wunderground v.1.15,2013-08-31 09:20:00,
2013-08-31 05:26:00,69.1,68.8,29.78,SW,219,0.0,-999.0,99,0.00,,,0.00,Wunderground v.1.15,2013-08-31 09:26:00,
2013-08-31 05:32:00,69.1,68.8,29.78,SW,219,0.0,-999.0,99,0.00,,,0.00,Wunderground v.1.15,2013-08-31 09:32:00,
2013-08-31 05:38:00,69.1,68.8,29.78,SW,219,0.0,-999.0,99,0.00,,,0.00,Wunderground v.1.15,2013-08-31 09:38:00,
2013-08-31 05:44:00,69.1,68.8,29.78,SW,220,0.0,-999.0,99,0.00,,,0.00,Wunderground v.1.15,2013-08-31 09:44:00,
2013-08-31 05:50:00,69.1,68.8,29.78,SW,227,0.0,-999.0,99,0.00,,,0.00,Wunderground v.1.15,2013-08-31 09:50:00,
2013-08-31 05:56:00,69.3,69.0,29.78,SW,227,0.0,-999.0,99,0.00,,,0.00,Wunderground v.1.15,2013-08-31 09:56:00,
2013-08-31 06:02:00,69.3,69.0,29.78,WSW,256,0.0,-999.0,99,0.00,,,0.00,Wunderground v.1.15,2013-08-31 10:02:00,
2013-08-31 06:08:00,69.4,69.1,29.78,SW,223,0.0,-999.0,99,0.00,,,0.00,Wunderground v.1.15,2013-08-31 10:08:00,
2013-08-31 06:14:00,69.5,69.2,29.79,SW,220,0.0,-999.0,99,0.00,,,0.00,Wunderground v.1.15,2013-08-31 10:14:00,
2013-08-31 06:20:00,69.5,69.2,29.79,NNW,333,0.0,-999.0,99,0.00,,,0.00,Wunderground v.1.15,2013-08-31 10:20:00,
2013-08-31 06:26:00,69.6,69.3,29.79,NW,326,0.0,-999.0,99,0.00,,,0.00,Wunderground v.1.15,2013-08-31 10:26:00,
2013-08-31 06:32:00,69.7,69.4,29.78,SW,223,1.0,-999.0,99,0.00,,,0.00,Wunderground v.1.15,2013-08-31 10:32:00,
2013-08-31 06:38:00,69.7,69.4,29.78,SW,222,0.0,-999.0,99,0.00,,,0.00,Wunderground v.1.15,2013-08-31 10:38:00,
2013-08-31 06:44:00,69.7,69.4,29.78,West,279,0.0,-999.0,99,0.00,,,0.00,Wunderground v.1.15,2013-08-31 10:44:00,
2013-08-31 06:50:00,69.8,69.5,29.78,West,277,0.0,-999.0,99,0.00,,,0.00,Wunderground v.1.15,2013-08-31 10:50:00,
2013-08-31 06:56:00,69.9,69.6,29.78,West,277,0.0,-999.0,99,0.00,,,0.00,Wunderground v.1.15,2013-08-31 10:56:00,
2013-08-31 07:02:00,70.1,69.8,29.78,West,277,0.0,-999.0,99,0.00,,,0.00,Wunderground v.1.15,2013-08-31 11:02:00,
2013-08-31 07:08:00,70.2,69.6,29.78,West,277,0.0,-999.0,98,0.00,,,0.00,Wunderground v.1.15,2013-08-31 11:08:00,
2013-08-31 07:14:00,70.3,69.7,29.78,West,277,0.0,-999.0,98,0.00,,,0.00,Wunderground v.1.15,2013-08-31 11:14:00,
2013-08-31 07:20:00,70.4,69.8,29.78,WSW,242,0.0,-999.0,98,0.00,,,0.00,Wunderground v.1.15,2013-08-31 11:20:00,
2013-08-31 07:26:00,70.5,69.9,29.78,WSW,241,0.0,-999.0,98,0.00,,,0.00,Wunderground v.1.15,2013-08-31 11:26:00,
2013-08-31 07:32:00,70.6,70.0,29.79,NNW,346,0.0,-999.0,98,0.00,,,0.00,Wunderground v.1.15,2013-08-31 11:32:00,
2013-08-31 07:38:00,70.8,70.2,29.79,SW,222,1.0,-999.0,98,0.00,,,0.00,Wunderground v.1.15,2013-08-31 11:38:00,
2013-08-31 07:44:00,70.9,70.0,29.79,WSW,245,1.0,-999.0,97,0.00,,,0.00,Wunderground v.1.15,2013-08-31 11:44:00,
2013-08-31 07:50:00,71.0,70.1,29.78,SW,217,1.0,-999.0,97,0.00,,,0.00,Wunderground v.1.15,2013-08-31 11:50:00,
2013-08-31 07:56:00,71.2,70.3,29.78,South,183,2.0,-999.0,97,0.00,,,0.00,Wunderground v.1.15,2013-08-31 11:56:00,
2013-08-31 08:02:00,71.2,70.3,29.78,SSW,207,2.0,-999.0,97,0.00,,,0.00,Wunderground v.1.15,2013-08-31 12:02:00,
2013-08-31 08:08:00,71.3,70.1,29.78,WSW,257,2.0,-999.0,96,0.00,,,0.00,Wunderground v.1.15,2013-08-31 12:08:00,
2013-08-31 08:14:00,71.5,70.3,29.78,WSW,251,2.0,-999.0,96,0.00,,,0.00,Wunderground v.1.15,2013-08-31 12:14:00,
2013-08-31 08:20:00,71.8,70.6,29.78,SW,221,1.0,-999.0,96,0.00,,,0.00,Wunderground v.1.15,2013-08-31 12:20:00,
2013-08-31 08:26:00,72.1,70.9,29.78,WSW,240,2.0,-999.0,96,0.00,,,0.00,Wunderground v.1.15,2013-08-31 12:26:00,
2013-08-31 08:32:00,72.6,71.1,29.78,West,259,2.0,-999.0,95,0.00,,,0.00,Wunderground v.1.15,2013-08-31 12:32:00,
2013-08-31 08:38:00,73.0,71.5,29.78,NW,310,2.0,-999.0,95,0.00,,,0.00,Wunderground v.1.15,2013-08-31 12:38:00,
2013-08-31 08:44:00,73.3,71.5,29.79,NW,309,2.0,-999.0,94,0.00,,,0.00,Wunderground v.1.15,2013-08-31 12:44:00,
2013-08-31 08:50:00,73.6,71.4,29.79,WNW,298,2.0,-999.0,93,0.00,,,0.00,Wunderground v.1.15,2013-08-31 12:50:00,
2013-08-31 08:56:00,73.6,71.4,29.79,NNW,334,3.0,-999.0,93,0.00,,,0.00,Wunderground v.1.15,2013-08-31 12:56:00,
2013-08-31 09:02:00,73.7,71.5,29.79,NNE,18,2.0,-999.0,93,0.00,,,0.00,Wunderground v.1.15,2013-08-31 13:02:00,
2013-08-31 09:08:00,74.0,71.8,29.79,WNW,301,2.0,-999.0,93,0.00,,,0.00,Wunderground v.1.15,2013-08-31 13:08:00,
2013-08-31 09:14:00,74.1,71.6,29.79,WSW,249,2.0,-999.0,92,0.00,,,0.00,Wunderground v.1.15,2013-08-31 13:14:00,
2013-08-31 09:20:00,74.2,71.7,29.79,WSW,245,2.0,-999.0,92,0.00,,,0.00,Wunderground v.1.15,2013-08-31 13:20:00,
2013-08-31 09:26:00,74.6,72.1,29.79,NNW,336,1.0,-999.0,92,0.00,,,0.00,Wunderground v.1.15,2013-08-31 13:26:00,
2013-08-31 09:32:00,74.5,71.7,29.79,NNW,337,2.0,-999.0,91,0.00,,,0.00,Wunderground v.1.15,2013-08-31 13:32:00,
2013-08-31 09:38:00,74.5,71.7,29.79,WSW,254,2.0,-999.0,91,0.00,,,0.00,Wunderground v.1.15,2013-08-31 13:38:00,
2013-08-31 09:44:00,74.7,71.9,29.79,NE,36,2.0,-999.0,91,0.00,,,0.00,Wunderground v.1.15,2013-08-31 13:44:00,
2013-08-31 09:50:00,74.4,71.6,29.79,WNW,284,2.0,-999.0,91,0.00,,,0.00,Wunderground v.1.15,2013-08-31 13:50:00,
2013-08-31 09:56:00,74.6,71.8,29.80,NNW,328,2.0,-999.0,91,0.00,,,0.00,Wunderground v.1.15,2013-08-31 13:56:00,
2013-08-31 10:02:00,75.0,72.2,29.79,NW,316,2.0,-999.0,91,0.00,,,0.00,Wunderground v.1.15,2013-08-31 14:02:00,
2013-08-31 10:08:00,75.6,72.5,29.79,WNW,292,1.0,-999.0,90,0.00,,,0.00,Wunderground v.1.15,2013-08-31 14:08:00,
2013-08-31 10:14:00,76.0,72.5,29.79,WNW,288,1.0,-999.0,89,0.00,,,0.00,Wunderground v.1.15,2013-08-31 14:14:00,
2013-08-31 10:20:00,76.1,72.6,29.79,NNW,327,2.0,-999.0,89,0.00,,,0.00,Wunderground v.1.15,2013-08-31 14:20:00,
2013-08-31 10:26:00,76.2,72.7,29.79,ENE,69,1.0,-999.0,89,0.00,,,0.00,Wunderground v.1.15,2013-08-31 14:26:00,
2013-08-31 10:32:00,76.5,73.0,29.79,WSW,237,1.0,-999.0,89,0.00,,,0.00,Wunderground v.1.15,2013-08-31 14:32:00,
2013-08-31 10:38:00,76.8,73.0,29.79,NW,315,1.0,-999.0,88,0.00,,,0.00,Wunderground v.1.15,2013-08-31 14:38:00,
2013-08-31 10:44:00,76.6,73.1,29.79,SSW,194,1.0,-999.0,89,0.00,,,0.00,Wunderground v.1.15,2013-08-31 14:44:00,
2013-08-31 10:50:00,76.5,73.0,29.79,WSW,257,1.0,-999.0,89,0.00,,,0.00,Wunderground v.1.15,2013-08-31 14:50:00,
2013-08-31 10:56:00,76.6,73.1,29.79,WSW,256,0.0,-999.0,89,0.00,,,0.00,Wunderground v.1.15,2013-08-31 14:56:00,
2013-08-31 11:02:00,76.9,73.4,29.79,NNW,348,0.0,-999.0,89,0.00,,,0.00,Wunderground v.1.15,2013-08-31 15:02:00,
2013-08-31 11:08:00,77.3,73.5,29.79,NW,307,0.0,-999.0,88,0.00,,,0.00,Wunderground v.1.15,2013-08-31 15:08:00,
2013-08-31 11:14:00,77.7,73.5,29.78,SSW,207,1.0,-999.0,87,0.00,,,0.00,Wunderground v.1.15,2013-08-31 15:14:00,
2013-08-31 11:20:00,77.9,74.1,29.78,SSW,196,2.0,-999.0,88,0.00,,,0.00,Wunderground v.1.15,2013-08-31 15:20:00,
2013-08-31 11:26:00,78.3,74.1,29.78,SE,146,2.0,-999.0,87,0.00,,,0.00,Wunderground v.1.15,2013-08-31 15:26:00,
2013-08-31 11:32:00,79.1,74.5,29.78,NW,313,1.0,-999.0,86,0.00,,,0.00,Wunderground v.1.15,2013-08-31 15:32:00,
2013-08-31 11:38:00,79.1,74.2,29.78,SW,236,1.0,-999.0,85,0.00,,,0.00,Wunderground v.1.15,2013-08-31 15:38:00,
2013-08-31 11:44:00,79.4,74.5,29.78,NNW,336,1.0,-999.0,85,0.00,,,0.00,Wunderground v.1.15,2013-08-31 15:44:00,
2013-08-31 11:50:00,79.5,74.6,29.78,SE,128,1.0,-999.0,85,0.00,,,0.00,Wunderground v.1.15,2013-08-31 15:50:00,
2013-08-31 11:56:00,79.6,74.7,29.78,NE,39,0.0,-999.0,85,0.00,,,0.00,Wunderground v.1.15,2013-08-31 15:56:00,
2013-08-31 12:02:00,79.6,74.3,29.78,West,280,0.0,-999.0,84,0.00,,,0.00,Wunderground v.1.15,2013-08-31 16:02:00,
2013-08-31 12:08:00,79.7,74.8,29.78,SW,236,1.0,-999.0,85,0.00,,,0.00,Wunderground v.1.15,2013-08-31 16:08:00,
2013-08-31 12:14:00,79.9,75.0,29.77,North,360,1.0,-999.0,85,0.00,,,0.00,Wunderground v.1.15,2013-08-31 16:14:00,
2013-08-31 12:20:00,80.3,75.0,29.78,NNW,330,0.0,-999.0,84,0.00,,,0.00,Wunderground v.1.15,2013-08-31 16:20:00,
2013-08-31 12:26:00,80.6,75.3,29.77,NW,309,1.0,-999.0,84,0.00,,,0.00,Wunderground v.1.15,2013-08-31 16:26:00,
2013-08-31 12:32:00,80.4,75.1,29.77,NW,313,1.0,-999.0,84,0.00,,,0.00,Wunderground v.1.15,2013-08-31 16:32:00,
2013-08-31 12:38:00,80.5,75.2,29.77,SW,234,1.0,-999.0,84,0.00,,,0.00,Wunderground v.1.15,2013-08-31 16:38:00,
2013-08-31 12:44:00,80.4,75.5,29.77,NW,322,1.0,-999.0,85,0.00,,,0.00,Wunderground v.1.15,2013-08-31 16:44:00,
2013-08-31 12:50:00,79.9,75.0,29.77,WNW,289,1.0,-999.0,85,0.00,,,0.00,Wunderground v.1.15,2013-08-31 16:50:00,
2013-08-31 12:56:00,80.1,75.2,29.77,NW,316,1.0,-999.0,85,0.00,,,0.00,Wunderground v.1.15,2013-08-31 16:56:00,
2013-08-31 13:02:00,79.9,75.0,29.77,NW,326,1.0,-999.0,85,0.00,,,0.00,Wunderground v.1.15,2013-08-31 17:02:00,
2013-08-31 13:08:00,79.6,74.7,29.77,SSE,150,1.0,-999.0,85,0.00,,,0.00,Wunderground v.1.15,2013-08-31 17:08:00,
2013-08-31 13:14:00,79.5,74.9,29.77,West,277,1.0,-999.0,86,0.00,,,0.00,Wunderground v.1.15,2013-08-31 17:14:00,
2013-08-31 13:20:00,79.7,75.1,29.77,West,273,0.0,-999.0,86,0.00,,,0.00,Wunderground v.1.15,2013-08-31 17:20:00,
2013-08-31 13:26:00,79.9,75.3,29.77,WNW,298,0.0,-999.0,86,0.00,,,0.00,Wunderground v.1.15,2013-08-31 17:26:00,
2013-08-31 13:32:00,80.0,75.8,29.77,WNW,298,0.0,-999.0,87,0.00,,,0.00,Wunderground v.1.15,2013-08-31 17:32:00,
2013-08-31 13:38:00,79.8,75.6,29.76,WNW,298,0.0,-999.0,87,0.00,,,0.00,Wunderground v.1.15,2013-08-31 17:38:00,
2013-08-31 13:44:00,80.0,75.4,29.77,NNW,342,0.0,-999.0,86,0.00,,,0.00,Wunderground v.1.15,2013-08-31 17:44:00,
2013-08-31 13:50:00,79.9,75.3,29.77,West,269,0.0,-999.0,86,0.00,,,0.00,Wunderground v.1.15,2013-08-31 17:50:00,
2013-08-31 13:56:00,79.7,75.1,29.77,SW,234,1.0,-999.0,86,0.00,,,0.00,Wunderground v.1.15,2013-08-31 17:56:00,
2013-08-31 14:02:00,79.5,74.9,29.77,NW,311,1.0,-999.0,86,0.00,,,0.00,Wunderground v.1.15,2013-08-31 18:02:00,
2013-08-31 14:08:00,79.2,75.0,29.76,WSW,239,1.0,-999.0,87,0.00,,,0.00,Wunderground v.1.15,2013-08-31 18:08:00,
2013-08-31 14:14:00,79.1,74.9,29.76,West,280,1.0,-999.0,87,0.00,,,0.00,Wunderground v.1.15,2013-08-31 18:14:00,
2013-08-31 14:20:00,78.8,74.6,29.76,West,281,1.0,-999.0,87,0.00,,,0.00,Wunderground v.1.15,2013-08-31 18:20:00,
2013-08-31 14:26:00,78.8,74.9,29.76,West,281,0.0,-999.0,88,0.00,,,0.00,Wunderground v.1.15,2013-08-31 18:26:00,
2013-08-31 14:32:00,78.7,74.8,29.76,West,278,0.0,-999.0,88,0.00,,,0.00,Wunderground v.1.15,2013-08-31 18:32:00,
2013-08-31 14:38:00,78.8,74.9,29.76,NW,316,0.0,-999.0,88,0.00,,,0.00,Wunderground v.1.15,2013-08-31 18:38:00,
2013-08-31 14:44:00,78.8,74.9,29.76,SW,225,0.0,-999.0,88,0.00,,,0.00,Wunderground v.1.15,2013-08-31 18:44:00,
2013-08-31 14:50:00,78.7,74.8,29.76,WSW,244,0.0,-999.0,88,0.00,,,0.00,Wunderground v.1.15,2013-08-31 18:50:00,
2013-08-31 14:56:00,78.7,74.8,29.76,SSE,152,0.0,-999.0,88,0.00,,,0.00,Wunderground v.1.15,2013-08-31 18:56:00,
2013-08-31 15:02:00,78.7,74.8,29.76,WSW,241,1.0,-999.0,88,0.00,,,0.00,Wunderground v.1.15,2013-08-31 19:02:00,
2013-08-31 15:08:00,78.6,74.7,29.76,NNE,27,1.0,-999.0,88,0.00,,,0.00,Wunderground v.1.15,2013-08-31 19:08:00,
2013-08-31 15:14:00,78.6,74.4,29.76,SW,229,1.0,-999.0,87,0.00,,,0.00,Wunderground v.1.15,2013-08-31 19:14:00,
2013-08-31 15:20:00,78.7,74.8,29.76,NNW,344,1.0,-999.0,88,0.00,,,0.00,Wunderground v.1.15,2013-08-31 19:20:00,
2013-08-31 15:26:00,79.0,75.1,29.76,WNW,295,0.0,-999.0,88,0.00,,,0.00,Wunderground v.1.15,2013-08-31 19:26:00,
2013-08-31 15:32:00,79.2,75.0,29.76,SW,231,1.0,-999.0,87,0.00,,,0.00,Wunderground v.1.15,2013-08-31 19:32:00,
2013-08-31 15:38:00,79.1,74.9,29.76,East,97,1.0,-999.0,87,0.00,,,0.00,Wunderground v.1.15,2013-08-31 19:38:00,
2013-08-31 15:44:00,79.0,74.8,29.75,WSW,252,1.0,-999.0,87,0.00,,,0.00,Wunderground v.1.15,2013-08-31 19:44:00,
2013-08-31 15:50:00,79.0,75.1,29.75,West,261,0.0,-999.0,88,0.00,,,0.00,Wunderground v.1.15,2013-08-31 19:50:00,
2013-08-31 15:56:00,79.0,75.1,29.75,NNE,21,0.0,-999.0,88,0.00,,,0.00,Wunderground v.1.15,2013-08-31 19:56:00,
2013-08-31 16:02:00,78.8,74.9,29.75,ESE,111,0.0,-999.0,88,0.00,,,0.00,Wunderground v.1.15,2013-08-31 20:02:00,
2013-08-31 16:08:00,78.7,74.8,29.75,ESE,103,0.0,-999.0,88,0.00,,,0.00,Wunderground v.1.15,2013-08-31 20:08:00,
2013-08-31 16:14:00,78.5,74.6,29.75,North,360,0.0,-999.0,88,0.00,,,0.00,Wunderground v.1.15,2013-08-31 20:14:00,
2013-08-31 16:20:00,78.3,74.5,29.75,ESE,111,0.0,-999.0,88,0.00,,,0.00,Wunderground v.1.15,2013-08-31 20:20:00,
2013-08-31 16:26:00,78.3,74.8,29.75,WSW,241,0.0,-999.0,89,0.00,,,0.00,Wunderground v.1.15,2013-08-31 20:26:00,
2013-08-31 16:32:00,78.3,75.1,29.75,WSW,242,0.0,-999.0,90,0.00,,,0.00,Wunderground v.1.15,2013-08-31 20:32:00,
2013-08-31 16:38:00,78.3,75.1,29.75,WSW,242,0.0,-999.0,90,0.00,,,0.00,Wunderground v.1.15,2013-08-31 20:38:00,
2013-08-31 16:44:00,78.3,75.5,29.74,WSW,241,0.0,-999.0,91,0.00,,,0.00,Wunderground v.1.15,2013-08-31 20:44:00,
2013-08-31 16:50:00,78.3,75.5,29.75,SE,144,0.0,-999.0,91,0.00,,,0.00,Wunderground v.1.15,2013-08-31 20:50:00,
2013-08-31 16:56:00,78.7,75.5,29.75,SE,144,0.0,-999.0,90,0.00,,,0.00,Wunderground v.1.15,2013-08-31 20:56:00,
2013-08-31 17:02:00,79.2,75.7,29.74,SSE,148,0.0,-999.0,89,0.00,,,0.00,Wunderground v.1.15,2013-08-31 21:02:00,
2013-08-31 17:08:00,79.5,75.3,29.75,NNW,331,1.0,-999.0,87,0.00,,,0.00,Wunderground v.1.15,2013-08-31 21:08:00,
2013-08-31 17:14:00,79.6,75.4,29.75,SW,223,1.0,-999.0,87,0.00,,,0.00,Wunderground v.1.15,2013-08-31 21:14:00,
2013-08-31 17:20:00,79.8,75.6,29.74,WSW,246,0.0,-999.0,87,0.00,,,0.00,Wunderground v.1.15,2013-08-31 21:20:00,
2013-08-31 17:26:00,79.8,75.6,29.74,SE,138,0.0,-999.0,87,0.00,,,0.00,Wunderground v.1.15,2013-08-31 21:26:00,
2013-08-31 17:32:00,79.9,75.7,29.74,SW,231,0.0,-999.0,87,0.00,,,0.00,Wunderground v.1.15,2013-08-31 21:32:00,
2013-08-31 17:38:00,80.1,76.2,29.74,NW,309,0.0,-999.0,88,0.00,,,0.00,Wunderground v.1.15,2013-08-31 21:38:00,
2013-08-31 17:44:00,80.1,75.9,29.74,NNW,340,1.0,-999.0,87,0.00,,,0.00,Wunderground v.1.15,2013-08-31 21:44:00,
2013-08-31 17:50:00,79.7,75.8,29.74,NNE,27,1.0,-999.0,88,0.00,,,0.00,Wunderground v.1.15,2013-08-31 21:50:00,
2013-08-31 17:56:00,79.4,75.5,29.74,WNW,299,0.0,-999.0,88,0.00,,,0.00,Wunderground v.1.15,2013-08-31 21:56:00,
2013-08-31 18:02:00,78.9,75.4,29.74,ESE,107,0.0,-999.0,89,0.00,,,0.00,Wunderground v.1.15,2013-08-31 22:02:00,
2013-08-31 18:08:00,78.7,75.2,29.74,ESE,107,0.0,-999.0,89,0.00,,,0.00,Wunderground v.1.15,2013-08-31 22:08:00,
2013-08-31 18:14:00,78.5,75.3,29.74,ESE,107,0.0,-999.0,90,0.00,,,0.00,Wunderground v.1.15,2013-08-31 22:14:00,
2013-08-31 18:20:00,78.1,74.9,29.74,West,261,0.0,-999.0,90,0.00,,,0.00,Wunderground v.1.15,2013-08-31 22:20:00,
2013-08-31 18:26:00,77.9,75.1,29.74,West,261,0.0,-999.0,91,0.00,,,0.00,Wunderground v.1.15,2013-08-31 22:26:00,
2013-08-31 18:32:00,77.7,74.9,29.74,West,261,0.0,-999.0,91,0.00,,,0.00,Wunderground v.1.15,2013-08-31 22:32:00,
2013-08-31 18:38:00,77.5,74.7,29.75,West,261,0.0,-999.0,91,0.00,,,0.00,Wunderground v.1.15,2013-08-31 22:38:00,
2013-08-31 18:44:00,77.3,74.5,29.75,West,260,0.0,-999.0,91,0.00,,,0.00,Wunderground v.1.15,2013-08-31 22:44:00,
2013-08-31 18:50:00,77.1,74.6,29.75,West,261,0.0,-999.0,92,0.00,,,0.00,Wunderground v.1.15,2013-08-31 22:50:00,
2013-08-31 18:56:00,76.9,74.4,29.75,West,260,0.0,-999.0,92,0.00,,,0.00,Wunderground v.1.15,2013-08-31 22:56:00,
2013-08-31 19:02:00,76.5,74.3,29.75,West,260,0.0,-999.0,93,0.00,,,0.00,Wunderground v.1.15,2013-08-31 23:02:00,
2013-08-31 19:08:00,76.2,74.3,29.75,West,261,0.0,-999.0,94,0.00,,,0.00,Wunderground v.1.15,2013-08-31 23:08:00,
2013-08-31 19:14:00,75.9,74.0,29.75,West,260,0.0,-999.0,94,0.00,,,0.00,Wunderground v.1.15,2013-08-31 23:14:00,
2013-08-31 19:20:00,75.6,74.1,29.74,West,260,0.0,-999.0,95,0.00,,,0.00,Wunderground v.1.15,2013-08-31 23:20:00,
2013-08-31 19:26:00,75.4,73.9,29.74,West,260,0.0,-999.0,95,0.00,,,0.00,Wunderground v.1.15,2013-08-31 23:26:00,
2013-08-31 19:32:00,75.2,73.7,29.74,West,261,0.0,-999.0,95,0.00,,,0.00,Wunderground v.1.15,2013-08-31 23:32:00,
2013-08-31 19:38:00,74.9,73.4,29.74,West,260,0.0,-999.0,95,0.00,,,0.00,Wunderground v.1.15,2013-08-31 23:38:00,
2013-08-31 19:44:00,74.7,73.2,29.74,West,260,0.0,-999.0,95,0.00,,,0.00,Wunderground v.1.15,2013-08-31 23:44:00,
2013-08-31 19:50:00,74.5,73.3,29.74,West,260,0.0,-999.0,96,0.00,,,0.00,Wunderground v.1.15,2013-08-31 23:50:00,
2013-08-31 19:56:00,74.3,73.1,29.75,West,259,0.0,-999.0,96,0.00,,,0.00,Wunderground v.1.15,2013-08-31 23:56:00,
2013-08-31 20:02:00,74.1,72.9,29.75,West,259,0.0,-999.0,96,0.00,,,0.00,Wunderground v.1.15,2013-09-01 00:02:00,
2013-08-31 20:08:00,74.0,72.8,29.75,West,259,0.0,-999.0,96,0.00,,,0.00,Wunderground v.1.15,2013-09-01 00:08:00,
2013-08-31 20:14:00,73.8,72.6,29.75,West,259,0.0,-999.0,96,0.00,,,0.00,Wunderground v.1.15,2013-09-01 00:14:00,
2013-08-31 20:20:00,73.6,72.4,29.75,West,259,0.0,-999.0,96,0.00,,,0.00,Wunderground v.1.15,2013-09-01 00:20:00,
2013-08-31 20:26:00,73.5,72.6,29.74,West,259,0.0,-999.0,97,0.00,,,0.00,Wunderground v.1.15,2013-09-01 00:26:00,
2013-08-31 20:32:00,73.3,72.4,29.75,West,259,0.0,-999.0,97,0.00,,,0.00,Wunderground v.1.15,2013-09-01 00:32:00,
2013-08-31 20:38:00,73.1,72.2,29.75,West,259,0.0,-999.0,97,0.00,,,0.00,Wunderground v.1.15,2013-09-01 00:38:00,
2013-08-31 20:44:00,73.0,72.1,29.75,West,259,0.0,-999.0,97,0.00,,,0.00,Wunderground v.1.15,2013-09-01 00:44:00,
2013-08-31 20:50:00,72.9,72.0,29.75,West,259,0.0,-999.0,97,0.00,,,0.00,Wunderground v.1.15,2013-09-01 00:50:00,
2013-08-31 20:56:00,72.8,71.9,29.75,West,259,0.0,-999.0,97,0.00,,,0.00,Wunderground v.1.15,2013-09-01 00:56:00,
2013-08-31 21:02:00,72.7,71.8,29.75,West,259,0.0,-999.0,97,0.00,,,0.00,Wunderground v.1.15,2013-09-01 01:02:00,
2013-08-31 21:08:00,72.7,72.1,29.76,West,259,0.0,-999.0,98,0.00,,,0.00,Wunderground v.1.15,2013-09-01 01:08:00,
2013-08-31 21:14:00,72.6,72.0,29.76,West,259,0.0,-999.0,98,0.00,,,0.00,Wunderground v.1.15,2013-09-01 01:14:00,
2013-08-31 21:20:00,72.6,72.0,29.76,West,260,0.0,-999.0,98,0.00,,,0.00,Wunderground v.1.15,2013-09-01 01:20:00,
2013-08-31 21:26:00,72.5,71.9,29.77,West,260,0.0,-999.0,98,0.00,,,0.00,Wunderground v.1.15,2013-09-01 01:26:00,
2013-08-31 21:32:00,72.4,71.8,29.77,West,260,0.0,-999.0,98,0.00,,,0.00,Wunderground v.1.15,2013-09-01 01:32:00,
2013-08-31 21:38:00,72.4,71.8,29.77,West,260,0.0,-999.0,98,0.00,,,0.00,Wunderground v.1.15,2013-09-01 01:38:00,
2013-08-31 21:44:00,72.4,71.8,29.77,West,260,0.0,-999.0,98,0.00,,,0.00,Wunderground v.1.15,2013-09-01 01:44:00,
2013-08-31 21:50:00,72.3,71.7,29.78,West,260,0.0,-999.0,98,0.00,,,0.00,Wunderground v.1.15,2013-09-01 01:50:00,
2013-08-31 21:56:00,72.2,71.6,29.78,West,260,0.0,-999.0,98,0.00,,,0.00,Wunderground v.1.15,2013-09-01 01:56:00,
2013-08-31 22:02:00,72.2,71.6,29.78,West,259,0.0,-999.0,98,0.00,,,0.00,Wunderground v.1.15,2013-09-01 02:02:00,
2013-08-31 22:08:00,72.1,71.5,29.78,West,259,0.0,-999.0,98,0.00,,,0.00,Wunderground v.1.15,2013-09-01 02:08:00,
2013-08-31 22:14:00,72.1,71.5,29.78,West,259,0.0,-999.0,98,0.00,,,0.00,Wunderground v.1.15,2013-09-01 02:14:00,
2013-08-31 22:20:00,71.9,71.3,29.78,West,259,0.0,-999.0,98,0.00,,,0.00,Wunderground v.1.15,2013-09-01 02:20:00,
2013-08-31 22:26:00,71.9,71.3,29.78,West,259,0.0,-999.0,98,0.00,,,0.00,Wunderground v.1.15,2013-09-01 02:26:00,
2013-08-31 22:32:00,71.9,71.3,29.78,West,259,0.0,-999.0,98,0.00,,,0.00,Wunderground v.1.15,2013-09-01 02:32:00,
2013-08-31 22:38:00,71.9,71.6,29.78,West,259,0.0,-999.0,99,0.00,,,0.00,Wunderground v.1.15,2013-09-01 02:38:00,
2013-08-31 22:44:00,71.9,71.6,29.78,West,259,0.0,-999.0,99,0.00,,,0.00,Wunderground v.1.15,2013-09-01 02:44:00,
2013-08-31 22:50:00,71.9,71.6,29.78,West,259,0.0,-999.0,99,0.00,,,0.00,Wunderground v.1.15,2013-09-01 02:50:00,
2013-08-31 22:56:00,71.9,71.6,29.78,West,259,0.0,-999.0,99,0.00,,,0.00,Wunderground v.1.15,2013-09-01 02:56:00,
2013-08-31 23:02:00,71.8,71.5,29.78,West,259,0.0,-999.0,99,0.00,,,0.00,Wunderground v.1.15,2013-09-01 03:02:00,
2013-08-31 23:08:00,71.7,71.4,29.78,West,259,0.0,-999.0,99,0.00,,,0.00,Wunderground v.1.15,2013-09-01 03:08:00,
2013-08-31 23:14:00,71.7,71.4,29.78,West,259,0.0,-999.0,99,0.00,,,0.00,Wunderground v.1.15,2013-09-01 03:14:00,
2013-08-31 23:20:00,71.7,71.4,29.78,West,259,0.0,-999.0,99,0.00,,,0.00,Wunderground v.1.15,2013-09-01 03:20:00,
2013-08-31 23:26:00,71.6,71.3,29.78,West,259,0.0,-999.0,99,0.00,,,0.00,Wunderground v.1.15,2013-09-01 03:26:00,
2013-08-31 23:32:00,71.6,71.3,29.78,West,259,0.0,-999.0,99,0.00,,,0.00,Wunderground v.1.15,2013-09-01 03:32:00,
2013-08-31 23:38:00,71.5,71.2,29.78,West,259,0.0,-999.0,99,0.00,,,0.00,Wunderground v.1.15,2013-09-01 03:38:00,
2013-08-31 23:44:00,71.4,71.1,29.78,West,259,0.0,-999.0,99,0.00,,,0.00,Wunderground v.1.15,2013-09-01 03:44:00,
2013-08-31 23:50:00,71.3,71.0,29.78,West,259,0.0,-999.0,99,0.00,,,0.00,Wunderground v.1.15,2013-09-01 03:50:00,
2013-08-31 23:56:00,71.3,71.0,29.77,West,259,0.0,-999.0,99,0.00,,,0.00,Wunderground v.1.15,2013-09-01 03:56:00,